Home > Weather > Victoria > Past weeks

Flag for Seychelles Weather for the Past 2 Weeks in Victoria, Seychelles

Now
86 °F

Passing clouds.


Feels Like: 97 °F
Forecast: 77 / 85 °F
Wind: 6 mph from Northwest

Location: National Airport

Current Time: May 4, 2016 at 7:44:54 PM

Latest Report: May 4, 2016 at 7:00 PM


Visibility: N/A

Pressure: 29.80 "Hg

Humidity: 75%

Dew Point: 77 °F

Location of VictoriaLocation

Historic Weather in Victoria — Graph

°F

Victoria Temperature Yesterday

Maximum temperature yesterday: 90 °F (at 4:00 PM)
Minimum temperature yesterday: 81 °F (at 5:00 AM)
Average temperature yesterday: 85 °F

High & Low Weather Summary for the Past Weeks

 TemperatureHumidityPressure
High91 °F (Apr 23, 2:00 PM)100% (Apr 21, 3:00 AM)29.95 "Hg (Apr 21, 3:00 AM)
Low77 °F (Apr 21, 3:00 AM)55% (Apr 24, 2:00 PM)29.71 "Hg (Apr 24, 3:00 PM)
Average84 °F76%29.81 "Hg
* Reported Apr 19 6:00 PM — May 4 6:00 PM, Victoria, Weather by CustomWeather, © 2016

Note: Actual official high and low records may vary slightly from our data, if they occured in-between our weather recording intervals... More about our weather records

Advertising

Victoria Weather History for the Previous 24 Hours

Scroll right to see more
 ConditionsComfort  
Time TempWeatherWind HumidityBarometerVisibility
6:00 PM
Wed, May 4
88 °FPartly sunny.8 mph70%29.77 "HgN/A
5:00 PM88 °FPartly sunny.9 mph70%29.77 "HgN/A
4:00 PM90 °FScattered clouds.8 mph71%29.77 "HgN/A
3:00 PM91 °FSprinkles. Scattered clouds.8 mph67%29.77 "HgN/A
2:00 PM90 °FScattered clouds.8 mph67%29.77 "HgN/A
1:00 PM90 °FScattered clouds.8 mph67%29.80 "HgN/A
12:00 PM90 °FPassing clouds.6 mph67%29.83 "HgN/A
11:00 AM90 °FPartly sunny.10 mph67%29.83 "HgN/A
10:00 AM91 °FScattered clouds.6 mph63%29.86 "HgN/A
9:00 AM90 °FScattered clouds.6 mph67%29.86 "HgN/A
8:00 AM88 °FScattered clouds.5 mph70%29.83 "HgN/A
7:00 AM84 °FScattered clouds.6 mph79%29.83 "HgN/A
6:00 AM84 °FPassing clouds.8 mph74%29.80 "HgN/A
5:00 AM86 °FPassing clouds.13 mph66%29.77 "HgN/A
4:00 AM84 °FPassing clouds.13 mph74%29.77 "HgN/A
3:00 AM84 °FPassing clouds.6 mph74%29.77 "HgN/A
2:00 AM84 °FPassing clouds.6 mph74%29.77 "HgN/A
1:00 AM82 °FPassing clouds.No wind84%29.80 "HgN/A
12:00 AM82 °FPassing clouds.No wind79%29.83 "HgN/A
11:00 PM
Tue, May 3
84 °FPassing clouds.No wind74%29.83 "HgN/A
10:00 PM82 °FPassing clouds.3 mph79%29.83 "HgN/A
9:00 PM82 °FPassing clouds.No wind79%29.83 "HgN/A
8:00 PM84 °FPassing clouds.3 mph74%29.83 "HgN/A
7:00 PM82 °FPassing clouds.6 mph84%29.80 "HgN/A
Weather by CustomWeather, © 2016

See weather overviewHow to use our weather pages